Location: Black Creek
(40.9000°S, 175.5500°E)
Time: 03:02:53
(UTC+00:00)

Meteor 1-24 Rocket - Pass Details

Date: 11 November 2024
Orbit: 789 x 926 km, 81.3° (Epoch: 03 December)

Event Time Altitude Azimuth Distance (km) Brightness Sun altitude
Rises 15:53:04 0° 196° (SSW) 3,600 7.2 -10.7°
Reaches altitude 10° 15:55:40 10° 202° (SSW) 2,640 6.4 -10.3°
Maximum altitude 16:01:23 45° 272° (W) 1,216 4.2 -9.4°
Drops below altitude 10° 16:06:52 10° 343° (NNW) 2,538 5.7 -8.5°
Sets 16:09:21 0° 349° (N) 3,447 6.5 -8.1°
